Location: Newark
(45.5000°N, 11.4167°E)
Time: 00:02:00
(UTC+00:00)

Transit 2A Rocket - Pass Details

Date: 02 September 2019
Orbit: 592 x 911 km, 66.7° (Epoch: 19 September)

Event Time Altitude Azimuth Distance (km) Brightness Sun altitude
Rises 23:56:27 0° 329° (NNW) 2,996 8.6 -35.9°
Reaches altitude 10° 23:58:52 10° 334° (NNW) 2,038 7.7 -35.8°
Enters shadow 23:59:37 14° 337° (NNW) 1,750 7.3 -35.8°
